| time (UTC) | temp F | wind direction | speed knots | gust knots | rain 1hr in | rain 24hr in | rain mn in | humidity % | barometer mb |
| 20260507200011 | 94 | 102 | 0.0 | 0.0 | 0.00 | 0.00 | 0.00 | 100 | 1013.9 |
| 20260507194510 | 94 | 135 | 0.0 | 0.0 | 0.00 | 0.00 | 0.00 | 100 | 1014.1 |
| 20260507191511 | 92 | 101 | 0.0 | 1.7 | 0.00 | 0.00 | 0.00 | 100 | 1014.3 |
| 20260507190009 | 92 | 105 | 0.0 | 1.7 | 0.00 | 0.00 | 0.00 | 100 | 1014.5 |
| 20260507184510 | 92 | 119 | 0.0 | 1.7 | 0.00 | 0.00 | 0.00 | 100 | 1014.7 |
| 20260507181508 | 92 | 85 | 0.9 | 2.6 | 0.00 | 0.00 | 0.00 | 100 | 1015.2 |
| 20260507180007 | 93 | 101 | 0.0 | 0.9 | 0.00 | 0.00 | 0.00 | 100 | 1015.3 |
| 20260507174506 | 93 | 103 | 1.7 | 2.6 | 0.00 | 0.00 | 0.00 | 100 | 1015.4 |
| 20260507171503 | 93 | 97 | 0.0 | 3.5 | 0.00 | 0.00 | 0.00 | 100 | 1015.5 |
| 20260507170002 | 93 | 92 | 0.0 | 2.6 | 0.00 | 0.00 | 0.00 | 100 | 1015.6 |
| 20260507164600 | 93 | 63 | 0.0 | 2.6 | 0.00 | 0.00 | 0.00 | 100 | 1015.9 |
| 20260507163119 | 92 | 101 | 0.0 | 2.6 | 0.00 | 0.00 | 0.00 | 100 | 1016.1 |
| 20260507161556 | 91 | 106 | 0.0 | 1.7 | 0.00 | 0.00 | 0.00 | 100 | 1016.1 |
| 20260507160055 | 91 | 88 | 0.0 | 2.6 | 0.00 | 0.00 | 0.00 | 100 | 1016.1 |
| 20260507154553 | 90 | 104 | 0.0 | 2.6 | 0.00 | 0.00 | 0.00 | 100 | 1016.2 |
| 20260507151552 | 89 | 86 | 0.0 | 2.6 | 0.00 | 0.00 | 0.00 | 100 | 1016.2 |
| 20260507150051 | 90 | 60 | 0.9 | 2.6 | 0.00 | 0.00 | 0.00 | 100 | 1016.3 |
| 20260507144612 | 89 | 91 | 0.0 | 2.6 | 0.00 | 0.00 | 0.00 | 100 | 1016.2 |
| 20260507141553 | 88 | 83 | 0.0 | 2.6 | 0.00 | 0.00 | 0.00 | 100 | 1016.2 |
| 20260507140043 | 87 | 99 | 0.0 | 1.7 | 0.00 | 0.00 | 0.00 | 100 | 1016.0 |
| 20260507134547 | 87 | 77 | 0.0 | 1.7 | 0.00 | 0.00 | 0.00 | 100 | 1016.1 |
| 20260507131542 | 87 | 53 | 0.0 | 1.7 | 0.00 | 0.00 | 0.00 | 100 | 1015.8 |
| 20260507130037 | 86 | 90 | 0.0 | 0.9 | 0.00 | 0.00 | 0.00 | 100 | 1015.8 |
| 20260507124535 | 86 | 111 | 0.0 | 0.0 | 0.00 | 0.00 | 0.00 | 100 | 1015.7 |
| 20260507121530 | 83 | 80 | 0.0 | 0.0 | 0.00 | 0.00 | 0.00 | 100 | 1015.5 |
| 20260507120027 | 82 | 89 | 0.0 | 0.0 | 0.00 | 0.00 | 0.00 | 100 | 1015.3 |
| 20260507114524 | 81 | 96 | 0.0 | 0.0 | 0.00 | 0.00 | 0.00 | 100 | 1015.2 |
| 20260507111528 | 0 | 0.0 | 0.0 | 0.00 | 0.00 | 0.00 | 1015.0 | ||
| 20260507110015 | 0 | 0.0 | 0.0 | 0.00 | 0.00 | 0.00 | 1014.9 | ||
| 20260507104511 | 0 | 0.0 | 0.0 | 0.00 | 0.00 | 0.00 | 1014.7 | ||
| 20260507100059 | 0 | 0.0 | 0.0 | 0.00 | 0.00 | 0.00 | 1014.3 | ||
| 20260507094555 | 0 | 0.0 | 0.0 | 0.00 | 0.00 | 0.00 | 1014.1 | ||
| 20260507091546 | 0 | 0.0 | 0.0 | 0.00 | 0.00 | 0.00 | 1014.1 | ||
| 20260507090043 | 0 | 0.0 | 0.0 | 0.00 | 0.00 | 0.00 | 1014.1 | ||
| 20260507084543 | 0 | 0.0 | 0.0 | 0.00 | 0.00 | 0.00 | 1014.1 | ||
| 20260507081535 | 80 | 98 | 0.0 | 0.0 | 0.00 | 0.00 | 0.00 | 100 | 1014.1 |
| 20260507080038 | 80 | 97 | 0.0 | 0.0 | 0.00 | 0.00 | 0.00 | 100 | 1014.1 |
| 20260507074533 | 81 | 104 | 0.0 | 0.0 | 0.00 | 0.00 | 0.00 | 100 | 1014.1 |
| 20260507071532 | 80 | 58 | 0.0 | 0.0 | 0.00 | 0.00 | 0.00 | 100 | 1014.4 |
| 20260507070032 | 80 | 77 | 0.0 | 0.0 | 0.00 | 0.00 | 0.00 | 100 | 1014.5 |
| 20260507064532 | 80 | 110 | 0.0 | 0.0 | 0.00 | 0.00 | 0.00 | 100 | 1014.5 |
| 20260507061531 | 80 | 110 | 0.0 | 0.0 | 0.00 | 0.00 | 0.00 | 100 | 1014.9 |
| 20260507060045 | 80 | 113 | 0.0 | 0.0 | 0.00 | 0.00 | 0.00 | 100 | 1015.2 |
| 20260507054538 | 80 | 134 | 0.0 | 0.0 | 0.00 | 0.00 | 0.00 | 100 | 1015.3 |
| 20260507051528 | 81 | 23 | 0.0 | 0.9 | 0.00 | 0.00 | 0.00 | 100 | 1015.5 |
| 20260507050027 | 81 | 100 | 0.0 | 0.0 | 0.00 | 0.00 | 0.00 | 100 | 1015.6 |
| 20260507044545 | 81 | 123 | 0.0 | 0.9 | 0.00 | 0.00 | 0.00 | 100 | 1015.8 |
| 20260507041527 | 81 | 89 | 0.0 | 0.0 | 0.00 | 0.00 | 0.00 | 100 | 1016.0 |
| 20260507040032 | 81 | 88 | 0.0 | 0.0 | 0.00 | 0.00 | 0.00 | 100 | 1016.1 |
| 20260507034528 | 81 | 105 | 0.0 | 0.0 | 0.00 | 0.00 | 0.00 | 100 | 1016.1 |
| 20260507031524 | 81 | 98 | 0.0 | 0.0 | 0.00 | 0.00 | 0.00 | 100 | 1016.0 |
| 20260507030125 | 82 | 101 | 0.0 | 0.0 | 0.00 | 0.00 | 0.00 | 100 | 1016.1 |
| 20260507024524 | 82 | 69 | 0.0 | 0.0 | 0.00 | 0.00 | 0.00 | 100 | 1015.8 |
| 20260507021529 | 82 | 98 | 0.0 | 0.9 | 0.00 | 0.00 | 0.00 | 100 | 1015.4 |
| 20260507020037 | 82 | 82 | 0.0 | 0.0 | 0.00 | 0.00 | 0.00 | 100 | 1015.3 |
| 20260507014525 | 82 | 96 | 0.0 | 0.0 | 0.00 | 0.00 | 0.00 | 100 | 1015.3 |
| 20260507013024 | 82 | 114 | 0.0 | 0.0 | 0.00 | 0.00 | 0.00 | 100 | 1015.2 |
| 20260507011524 | 82 | 124 | 0.0 | 0.0 | 0.00 | 0.00 | 0.00 | 100 | 1015.1 |
| 20260507004526 | 82 | 96 | 0.0 | 0.0 | 0.00 | 0.00 | 0.00 | 100 | 1015.1 |
| 20260507003026 | 82 | 114 | 0.0 | 0.9 | 0.00 | 0.00 | 0.00 | 100 | 1015.0 |
| 20260507001524 | 83 | 100 | 0.0 | 0.0 | 0.00 | 0.00 | 0.00 | 100 | 1014.9 |
| 20260506234521 | 83 | 107 | 0.0 | 0.0 | 0.00 | 0.00 | 0.00 | 100 | 1014.5 |
| 20260506233020 | 84 | 96 | 0.0 | 0.0 | 0.00 | 0.00 | 0.00 | 100 | 1014.2 |
| 20260506231520 | 85 | 88 | 0.0 | 0.9 | 0.00 | 0.00 | 0.00 | 100 | 1014.2 |
| 20260506224520 | 87 | 64 | 0.0 | 0.0 | 0.00 | 0.00 | 0.00 | 100 | 1014.3 |
| 20260506223018 | 88 | 91 | 0.0 | 0.9 | 0.00 | 0.00 | 0.00 | 100 | 1014.4 |
| 20260506221517 | 89 | 97 | 0.0 | 0.9 | 0.00 | 0.00 | 0.00 | 100 | 1014.3 |
| 20260506214516 | 90 | 96 | 0.0 | 0.0 | 0.00 | 0.00 | 0.00 | 100 | 1014.1 |
| 20260506213016 | 90 | 95 | 0.0 | 0.0 | 0.00 | 0.00 | 0.00 | 100 | 1014.0 |
| 20260506211515 | 91 | 109 | 0.0 | 0.9 | 0.00 | 0.00 | 0.00 | 100 | 1014.1 |
| 20260506203015 | 92 | 104 | 0.0 | 0.9 | 0.00 | 0.00 | 0.00 | 100 | 1014.4 |
| 20260506201516 | 93 | 98 | 0.0 | 1.7 | 0.00 | 0.00 | 0.00 | 100 | 1014.6 |